STARLINK-5173, 54059

Orbit data source: Space-Track

STARLINK-5173, 54059 is a payload satellite owned by SpaceX/Seattle (US) in LEO that was launched on Thu, 20 Oct 2022 UTC via an FALCON 9 launch vehicle from the Air Force Eastern Test Range (AFETR). Payload-class satellites include a variety of spacecraft equipped with specific instruments for various scientific and technological missions. These include communications satellites like Starlink; space stations such as the ISS; scientific satellites like the Hubble; Earth observation satellites from companies like Planet Labs, Umbra, and HawkEye 360; GPS; miniature CubeSats for education and research; and military/defense satellites.

Loading next visibility...
Identifier
54059, 2022-136J
Orbit
LEO
Country
Flag of USUS
Related business
Manufacturer
SpaceX/Seattle
Mission
Operational Commercial Communications
Bus & Motor
STARLINK, Unknown motor
Mass
305 kg wet, ~290 kg dry
Launch date (UTC)
2022-10-20 (3 years ago)
Launch vehicle
FALCON 9
Launch site
Air Force Eastern Test Range (AFETR)
Object type
Payload
Rocket body
Debris
Shape & HBR
Box + 1 Pan, 10.1 m
Radar Cross Section
13.562 m², Large (>1 m²)

Expand to show TLE details & history
Last TLE update: 9 hours ago

TLE from 9 hours ago
0 STARLINK-5173
1 54059U 22136J   25304.45777179  .00002597  00000-0  18115-3 0  9990
2 54059  53.2171 204.3141 0001479  87.3999 272.7163 15.08844840167335
Epoch: 2025-10-31T10:59Z
TLE epoch observation values (Epoch: 2025-10-31T10:59:11.482Z)
Latitude
0.00001°
Longitude
-0.48566°
Altitude
540.578 km
Speed
7.593 km/s
True Right ascension
13h 37m 15s
True Declination
0° 00' 00"
Sunlit
Object was in daylight at epoch
Visualization orbit readout
Latitude
Unknown
Longitude
Unknown
Altitude
Unknown
Speed
Unknown
Apparent Right ascension
Unknown
Apparent Declination
Unknown
Sunlit
N/A
Visualization observer readout
Local Sidereal Time
15:27:25
Azimuth
Unknown
Elevation
Unknown
Doppler factor
Unknown
Orbital elements
Apogee altitude
540.997 km
Perigee altitude
538.95 km
Semi-major axis
6,918.111 km
Eccentricity
0.00015
Inclination
53.2171°
RAAN
204.3141°
Arg. of periapsis
87.3999°
True anomaly
272.69937°
Mean anomaly
272.7163°
Eccentric anomaly
272.70784°
Mean motion
3.77192 °/min
Orbital period
95.44 mins
BSTAR
0.00018115
Loading maneuver chart data...
Computing Atmospheric mass density...
Loading historical data...
Loading historical data...
Loading historical data...
Loading historical data...
Loading historical data...
Loading historical data...
Loading historical data...

Documentation

Showing up to 5 results
|